Tracking 18673 objects as of 25-June-2017
HD Live streaming from Space Station
objects crossing your sky now

COSMOS 2251 DEB

Track COSMOS 2251 DEB now!
10-day predictions


NORAD ID: 34473
Int'l Code: 1993-036TS
Perigee: 728.2 km
Apogee: 769.0 km
Inclination: 74.0 °
Period: 99.6 minutes
Semi major axis: 7119 km
RCS: 0.0156 m2 (small)
Launch date: June 16, 1993
Source: Commonwealth of Independent States (former USSR) (CIS)
Launch site: PLESETSK MISSILE AND SPACE COMPLEX (PKMTR)

Note: This is SATELLITE DEBRIS
Your satellite tracking list
Your tracking list is empty





NASA's NSSDC Master Catalog

Two Line Element Set (TLE):
1 34473U 93036TS  17175.41906354 +.00000945 +00000-0 +27627-3 0  9990
2 34473 074.0326 165.1343 0028707 249.7069 261.7955 14.45172069437838
Source of the keplerian elements: AFSPC